CAPE
1 3 2 2 11 5 0 0 0 5 1 13 23 0 0 1 0 0 0 0 0 0 0 0 0 0 0 0 0 0 0 0 1 4 7 6 3 3
1 2 2 1 12 8 1 0 2 15 12 28 24 4 3 4 8 5 0 0 0 0 0 0 0 0 0 0 0 0 0 0 0 0 0 0 0 0
1 2 1 1 0 1 3 1 1 1 6 2 19 4 10 1 6 3 5 0 0 0 0 0 0 0 0 0 0 0 0 0 0 0 0 0 0 0
4 4 1 2 2 1 0 0 3 1 1 4 3 2 1 7 0 0 0 5 0 0 0 0 0 0 0 0 0 0 0 0 0 0 0 0 0 0
3 5 6 1 1 2 1 0 0 0 11 3 11 1 0 1 0 0 0 0 0 0 0 0 0 0 0 0 0 0 0 0 0 0 0 0 0 0
2 3 4 7 1 0 0 0 0 0 2 4 1 12 7 9 20 1 0 1 0 0 0 0 0 0 0 0 0 0 0 0 0 0 0 0 0 0
1 0 0 0 0 2 0 0 0 0 2 0 34 8 13 36 13 11 8 9 4 0 0 0 0 0 0 0 0 0 0 0 0 0 0 0 0 0
0 0 0 0 0 0 1 1 3 0 0 0 0 0 4 0 0 32 47 40 40 33 13 4 0 0 0 0 0 0 0 0 0 0 0 0 0 0
0 0 0 0 0 0 0 1 1 1 5 2 0 2 1 6 4 0 30 53 58 1 41 61 62 56 102 58 7 0 0 0 0 0 0 0 0 0
0 0 0 0 0 0 1 1 3 1 3 3 5 7 6 6 6 3 1 1 0 0 0 51 74 74 110 66 2 0 0 0 0 0 0 0 0 0
0 0 0 0 0 0 1 1 1 4 0 0 0 0 0 0 1 1 2 1 2 0 1 0 0 13 73 54 12 0 0 0 0 0 0 0 0 0
0 0 0 0 0 0 0 2 1 1 0 0 0 0 0 0 1 2 2 0 0 0 3 0 1 0 46 3 4 2 2 1 0 0 0 0 0 0
0 0 0 0 0 0 0 0 0 0 0 0 0 0 0 0 0 1 0 1 2 1 1 2 4 2 0 0 3 1 0 0 0 0 0 0 0 0
0 0 0 0 0 0 0 0 0 0 0 0 0 0 0 0 0 0 0 0 0 1 0 0 0 1 3 3 1 0 0 0 0 0 0 0 0 0
0 0 0 0 0 0 0 0 0 0 0 0 0 0 0 0 0 0 0 0 0 0 0 0 0 0 2 6 5 4 0 2 0 0 0 0 0 0
0 0 0 0 0 0 0 0 0 0 0 0 0 0 0 0 0 0 0 0 0 0 0 0 0 0 2 0 0 0 0 2 0 0 0 0 0 0
0 0 0 0 0 0 0 0 0 0 0 0 0 0 0 0 0 0 0 0 0 0 0 0 0 0 0 0 0 0 0 0 0 0 0 0 0 0
0 0 0 0 0 0 0 0 0 0 0 0 0 0 0 0 0 0 0 0 0 0 0 0 0 0 0 0 0 0 0 0 0 0 0 0 0 0
0 0 0 0 0 0 0 0 0 0 0 0 0 0 0 0 0 0 0 0 0 0 0 0 0 0 0 0 0 0 0 0 0 0 0 0 0 0
0 0 0 0 0 0 0 0 0 0 0 0 0 0 0 0 0 0 0 0 0 0 0 0 0 0 0 0 0 0 0 0 0 0 0 0 0 0
0 0 0 0 0 0 0 0 0 0 0 0 0 0 0 0 0 0 0 0 0 0 0 0 0 0 0 0 0 0 0 0 0 0 0 0 0 0
0 0 0 0 0 0 0 0 0 0 0 0 0 0 0 0 0 0 0 0 0 0 0 0 0 0 0 0 0 0 0 0 0 0 0 0 0 0
0 0 0 0 0 0 0 0 0 0 0 0 0 0 0 0 0 0 0 0 0 0 0 0 0 0 0 0 0 0 0 0 0 0 0 0 0 0
CIN
0 0 0 -18 -15 -9 -37 0 -0 -2 -1 -3 -3 0 0 -34 -4 -2 0 0 0 0 0 0 0 0 0 0 0 0 0 0 -5 -8 -2 -3 -1 -1
0 0 0 0 -4 -9 -23 0 -5 -2 -0 -5 -7 -12 -26 -24 -24 -18 0 0 0 0 0 0 0 0 0 0 0 0 0 0 0 0 0 0 0 0
0 0 0 0 0 -0 -3 -0 -2 -3 0 -1 -13 -47 -31 -5 -30 -27 -19 0 0 0 0 0 0 0 0 0 0 0 0 0 0 0 0 0 0 0
0 0 0 0 0 0 0 0 -9 -5 -2 -2 -1 -26 -33 -92 0 0 -35 -7 0 0 0 0 0 0 0 0 0 0 0 0 0 0 0 0 0 0
0 0 0 0 0 0 0 0 0 0 -1 0 -0 0 -8 -73 -4 0 0 0 0 0 0 0 0 0 0 0 0 0 0 0 0 0 0 0 0 0
0 0 0 0 0 0 0 0 0 0 0 -7 -8 -0 -9 -28 -77 -41 -18 -59 0 0 0 0 0 0 0 0 0 0 0 0 0 0 0 0 0 0
0 0 0 0 0 0 0 0 0 0 0 -1 0 -7 -4 -3 -78 -37 -22 -15 -41 -40 0 0 0 0 0 0 0 0 0 0 0 0 0 0 0 0
0 0 0 0 0 0 0 0 0 0 0 0 0 0 -28 0 0 -7 -3 -4 -6 -16 -19 -14 0 0 -1 0 0 0 0 0 0 0 0 0 0 0
0 0 0 0 0 0 0 0 0 0 0 0 0 0 0 0 0 -11 -26 -12 -1 -19 -40 -19 -29 -33 -8 -43 -132 0 0 0 0 0 0 0 0 0
0 0 0 0 0 0 0 0 0 0 0 0 0 0 0 0 0 0 0 0 0 0 0 -17 -14 -17 -17 -43 -56 0 0 0 0 0 0 0 0 0
0 0 0 0 0 0 0 0 0 0 0 0 0 0 0 0 0 0 0 0 -40 0 0 0 -14 -162 -44 -22 -87 0 0 0 0 0 0 0 0 0
0 0 0 0 0 0 0 0 0 0 0 0 0 0 0 0 0 0 0 0 0 0 0 0 0 0 -35 0 0 0 0 0 0 0 0 0 0 0
0 0 0 0 0 0 0 0 0 0 0 0 0 0 0 0 0 0 0 0 0 0 0 0 0 0 0 0 0 0 0 0 0 0 0 0 0 0
0 0 0 0 0 0 0 0 0 0 0 0 0 0 0 0 0 0 0 0 0 0 0 0 0 0 0 0 0 0 0 0 0 0 0 0 0 0
0 0 0 0 0 0 0 0 0 0 0 0 0 0 0 0 0 0 0 0 0 0 0 0 0 0 0 0 0 0 0 0 0 0 0 0 0 0
0 0 0 0 0 0 0 0 0 0 0 0 0 0 0 0 0 0 0 0 0 0 0 0 0 0 0 0 0 0 0 0 0 0 0 0 0 0
0 0 0 0 0 0 0 0 0 0 0 0 0 0 0 0 0 0 0 0 0 0 0 0 0 0 0 0 0 0 0 0 0 0 0 0 0 0
0 0 0 0 0 0 0 0 0 0 0 0 0 0 0 0 0 0 0 0 0 0 0 0 0 0 0 0 0 0 0 0 0 0 0 0 0 0
0 0 0 0 0 0 0 0 0 0 0 0 0 0 0 0 0 0 0 0 0 0 0 0 0 0 0 0 0 0 0 0 0 0 0 0 0 0
0 0 0 0 0 0 0 0 0 0 0 0 0 0 0 0 0 0 0 0 0 0 0 0 0 0 0 0 0 0 0 0 0 0 0 0 0 0
0 0 0 0 0 0 0 0 0 0 0 0 0 0 0 0 0 0 0 0 0 0 0 0 0 0 0 0 0 0 0 0 0 0 0 0 0 0
0 0 0 0 0 0 0 0 0 0 0 0 0 0 0 0 0 0 0 0 0 0 0 0 0 0 0 0 0 0 0 0 0 0 0 0 0 0
0 0 0 0 0 0 0 0 0 0 0 0 0 0 0 0 0 0 0 0 0 0 0 0 0 0 0 0 0 0 0 0 0 0 0 0 0 0
Wind_Speed
25 25 28 25 17 19 21 25 28 29 26 25 22 21 24 22 22 21 18 13 12 12 12 12 13 13 13 13 12 12 12 13 13 13 13 14 14 14
21 23 22 24 21 17 15 17 25 27 30 25 20 20 18 20 22 22 20 17 15 14 14 13 14 13 13 13 13 13 14 14 14 14 15 14 14 14
22 22 22 19 17 16 15 17 23 29 33 25 19 20 20 14 17 23 22 21 21 19 18 17 16 15 15 16 16 17 18 18 17 16 16 15 15 15
20 19 19 18 16 16 15 16 22 23 26 26 22 23 22 20 21 22 24 23 23 23 21 20 21 19 19 20 20 20 21 21 21 20 20 18 17 16
19 16 16 14 16 18 19 20 21 25 23 21 23 23 24 23 24 24 26 26 27 25 26 26 24 24 23 21 22 24 24 23 21 21 20 21 20 19
17 17 17 16 17 20 20 21 21 23 24 22 23 20 22 22 19 24 27 25 26 26 26 27 25 24 26 27 26 26 24 23 21 21 22 22 22 21
18 20 20 19 19 21 19 21 19 19 21 20 21 21 20 20 19 21 25 26 24 23 23 24 21 22 21 22 23 24 23 23 22 22 21 20 19 18
22 22 20 20 23 22 22 19 18 21 22 20 22 19 22 17 17 17 17 20 21 16 14 17 14 17 17 15 16 16 18 21 19 17 17 18 17 14
21 22 23 23 23 25 22 20 20 22 21 22 24 23 22 21 24 22 20 19 20 18 15 14 13 13 17 17 16 16 16 18 18 17 17 18 17 15
22 23 25 25 25 26 25 23 23 22 24 23 23 22 22 24 25 25 24 25 20 18 19 17 17 18 20 18 17 17 16 17 18 19 20 20 20 18
21 22 24 25 27 27 26 26 25 25 23 23 23 24 25 24 24 26 26 25 26 24 23 24 23 22 22 22 20 18 19 19 20 21 21 20 20 18
21 22 23 24 25 26 27 28 30 30 29 29 28 28 28 27 26 25 28 30 28 28 26 28 28 26 23 21 17 18 16 16 17 19 20 19 18 18
23 24 25 25 26 25 24 26 29 29 28 28 30 29 29 28 27 26 26 26 28 29 25 23 24 22 21 22 18 16 16 19 21 21 20 21 20 19
21 22 24 26 26 26 26 27 27 25 28 28 28 28 29 28 26 25 24 23 22 22 24 22 21 21 21 21 22 21 20 20 21 22 22 22 21 19
21 20 21 23 25 26 27 27 28 27 26 27 28 27 25 26 23 22 20 19 20 21 23 24 22 22 22 23 23 24 25 24 24 26 25 23 24 24
15 17 20 21 21 21 23 23 24 25 26 27 27 26 25 24 25 25 24 22 22 22 20 20 20 20 21 21 21 23 25 25 26 25 23 23 22 22
22 20 18 17 20 19 18 20 21 22 23 24 25 25 25 26 25 26 26 25 25 25 25 24 21 20 20 22 24 24 25 25 26 28 26 25 24 24
20 21 21 19 21 20 20 19 18 19 20 20 21 23 23 25 25 25 24 24 26 26 27 26 27 25 26 23 22 26 27 28 29 28 28 29 29 30
20 20 20 19 19 18 18 17 16 16 17 17 17 19 20 21 23 24 25 25 26 26 25 25 27 28 30 32 27 25 28 28 29 30 31 31 32 33
20 20 22 19 18 18 17 17 16 14 15 15 15 16 16 16 17 18 20 21 22 23 24 23 25 26 28 31 31 27 26 27 29 31 32 32 32 31
21 22 22 20 19 18 17 16 16 16 15 15 14 14 15 14 15 14 15 16 18 20 21 21 21 20 23 23 26 28 27 24 28 29 31 32 34 31
22 23 22 22 20 20 20 18 18 18 17 16 14 13 13 13 13 14 14 15 15 16 17 18 19 20 22 24 26 27 28 27 27 28 27 26 30 35
21 24 26 24 24 22 21 20 20 19 18 17 16 14 13 14 12 12 13 15 16 17 17 18 19 19 20 21 23 26 27 28 29 30 28 25 26 31
Wind_Direction
274 275 263 260 268 267 263 259 262 260 264 263 267 254 257 261 263 262 265 259 251 253 252 252 255 259 264 269 271 274 281 290 296 300 305 311 317 322
285 271 270 266 264 273 270 268 262 262 269 266 260 262 251 257 264 263 263 264 261 261 260 261 263 262 262 267 271 277 282 287 291 295 300 302 308 313
294 283 274 281 279 285 276 272 268 267 264 277 269 269 256 255 269 266 264 267 270 265 266 267 266 267 269 273 278 283 287 289 291 291 294 296 301 306
280 278 286 279 277 284 289 288 280 277 273 269 270 258 261 263 267 271 270 272 272 270 268 269 270 270 273 275 279 281 285 286 287 288 290 290 290 295
288 297 298 302 286 279 287 289 294 284 276 277 272 265 261 265 269 274 271 273 275 278 274 271 274 277 279 280 283 286 288 287 284 283 284 288 290 292
293 300 299 303 299 293 292 289 293 292 281 274 273 275 265 268 270 272 272 275 278 279 277 274 276 280 282 284 287 290 292 292 291 290 289 289 291 291
295 291 298 298 301 298 296 291 291 296 288 286 279 273 271 269 264 275 276 276 279 282 282 276 279 283 288 291 292 292 294 297 297 297 299 299 298 295
290 294 302 306 293 294 290 291 292 286 283 284 280 285 267 275 277 281 282 280 280 289 283 285 284 287 296 305 306 306 308 310 308 306 305 307 307 303
300 294 297 297 289 288 286 287 288 289 285 275 276 268 266 267 263 269 274 279 275 274 280 289 287 298 297 301 311 315 318 318 321 322 320 320 317 318
303 298 289 289 289 290 283 282 280 283 281 283 286 284 279 275 272 269 270 268 276 281 280 278 282 290 294 302 313 315 317 320 322 321 321 321 319 321
305 307 303 295 292 288 284 281 279 282 286 288 287 286 287 290 291 275 273 273 271 278 284 279 281 288 292 299 303 312 309 313 316 316 318 320 323 326
300 306 309 307 298 294 288 280 276 278 279 280 283 283 285 288 294 290 282 275 276 276 285 277 283 289 287 299 313 314 323 331 330 330 328 326 329 328
303 303 304 305 305 302 299 289 282 284 287 286 285 286 286 288 293 295 293 288 281 281 294 290 294 296 292 291 308 328 324 320 318 316 320 330 331 327
318 315 308 305 304 303 300 299 295 292 287 288 288 290 290 290 295 295 296 297 295 293 295 294 292 293 291 290 292 304 310 319 314 308 313 322 326 336
327 326 325 319 311 305 303 301 299 294 292 288 287 290 295 295 295 299 303 304 302 298 297 297 293 290 290 289 290 296 295 302 305 301 305 311 312 314
349 338 329 325 326 322 317 312 306 299 296 292 290 290 291 291 293 295 293 292 294 295 303 306 303 296 293 294 293 293 299 295 303 304 307 309 314 317
328 327 330 331 323 324 325 321 318 313 305 301 297 294 291 290 290 290 288 288 287 287 291 296 298 300 298 292 290 295 295 296 300 301 303 303 304 308
323 318 317 319 317 318 318 318 321 316 316 315 309 303 298 294 292 291 290 287 284 286 288 291 291 285 287 297 301 294 294 295 297 298 299 296 296 301
313 313 313 315 315 315 317 321 322 323 320 320 317 312 311 303 298 295 291 287 286 287 291 293 292 286 282 280 290 302 295 296 296 296 297 295 293 295
302 301 304 306 307 307 309 311 316 324 323 325 327 324 323 321 319 308 299 296 292 291 291 296 293 289 286 284 286 292 301 297 297 296 295 296 296 296
293 292 292 295 296 297 299 301 304 307 310 313 320 322 321 323 324 327 327 320 309 301 296 297 299 301 298 297 290 291 298 301 304 299 298 297 295 294
287 286 284 284 285 286 289 290 293 295 297 300 305 309 313 317 315 317 318 316 320 321 318 315 317 311 303 299 296 296 297 303 307 305 304 303 298 293
276 279 280 277 277 277 280 281 284 286 288 290 293 297 300 303 306 309 311 311 312 312 315 317 319 317 314 312 308 304 302 304 304 302 306 307 306 304